Regional Weather Roundup
Issued by NWS

Home | Current Version | Previous Version | Graphics & Text | Print | Product List | Glossary On
Versions: 1 2 3 4 5 6 7 8 9 10 11 12 13 14 15 16 17 18 19 20 21 22 23 24 25 26 27 28 29 30 31 32 33 34 35 36 37 38 39 40 41 42 43 44 45 46 47 48 49 50
000
ASUS43 KBIS 100702
RWRND

NORTH DAKOTA REGIONAL WEATHER ROUNDUP
NATIONAL WEATHER SERVICE BISMARCK ND
100 AM CST SUN DEC 10 2017

NOTE: "FAIR" INDICATES FEW OR NO CLOUDS BELOW 12,000 FEET WITH NO
SIGNIFICANT WEATHER AND/OR OBSTRUCTIONS TO VISIBILITY.


NDZ001>003-009>011-017-100800-
NORTHWEST NORTH DAKOTA

CITY           SKY/WX    TMP DP  RH WIND       PRES   REMARKS
WILLISTON      CLOUDY    38  22  52 W13       30.07S
MINOT          CLOUDY    37  25  61 W18       29.97R
MINOT AFB      CLOUDY    35  25  66 NW20      29.95R
$$

NDZ018>021-031>035-040>046-100800-
SOUTHWEST NORTH DAKOTA

CITY           SKY/WX    TMP DP  RH WIND       PRES   REMARKS
BISMARCK       CLOUDY    42  27  55 NW12      30.00R
DICKINSON      CLEAR     37  20  50 W20       30.05R
GARRISON         N/A     35  25  66 NW14      29.99R
HETTINGER ARPT CLEAR     39  14  36 W17       30.09S
$$

NDZ004>008-012>016-024-026-027-054-100800-
NORTHEAST NORTH DAKOTA

CITY           SKY/WX    TMP DP  RH WIND       PRES   REMARKS
GRAND FORKS    CLOUDY    26  21  81 N14       29.89R WCI  14
GRND FRKS AFB  CLOUDY    28  21  73 N14       29.89R WCI  17
DEVILS LAKE    CLOUDY    27  23  85 NW8       29.92R WCI  19
$$

NDZ022-023-025-028>030-036>039-047>053-100800-
SOUTHEAST NORTH DAKOTA

CITY           SKY/WX    TMP DP  RH WIND       PRES   REMARKS
FARGO          CLOUDY    28  22  78 NW12      29.88R WCI  18
JAMESTOWN      CLOUDY    34  26  72 NW16      29.90R
$$





USA.gov is the U.S. government's official web portal to all federal, state and local government web resources and services.